302  
ASUS44 KBMX 140610  
RWRAL  
 
ALABAMA REGIONAL WEATHER ROUNDUP  
NATIONAL WEATHER SERVICE BIRMINGHAM AL  
100 AM CDT TUE AUG 14 2018  
 
NOTE: "FAIR" INDICATES FEW OR NO CLOUDS BELOW 12,000 FEET  
WITH NO SIGNIFICANT WEATHER AND/OR S TO VISIBILITY
.  
 
THE REMARK "TC" DENOTES TEMPERATURE IN DEGREES CELSIUS.  
 
ALZ001>011-014-016>018-020-140700-  
NORTH ALABAMA  
 
CITY SKY/WX TMP DP RH WIND PRES REMARKS
 
MUSCLE SHOALS FAIR 69 66 90 CALM 30.06R  
6HR MIN TEMP: 69; 6HR MAX TEMP: 83;  
 
HUNTSVILLE FAIR 69 67 93 CALM 30.04F  
6HR MIN TEMP: 69; 6HR MAX TEMP: 85;  
 
DECATUR FAIR 67 66 97 CALM 30.05S  
6HR MIN TEMP: 67; 6HR MAX TEMP: 81;  
 
HALEYVILLE FAIR 67 65 93 N3 30.08F  
6HR MIN TEMP: 67; 6HR MAX TEMP: 81;  
 
GADSDEN FAIR 67 67 100 N3 30.04F  
6HR MIN TEMP: 67; 6HR MAX TEMP: 81;  
 

 
 
ALZ012-013-022-023-030>036-040>044-140700-  
WEST CENTRAL ALABAMA  
 
CITY SKY/WX TMP DP RH WIND PRES REMARKS
 
TUSCALOOSA FAIR 75 72 90 NW3 30.03S  
6HR MIN TEMP: 75; 6HR MAX TEMP: 83;  
 
DEMOPOLIS N/A 74 71 91 W3 30.02F  
6HR MIN TEMP: 73; 6HR MAX TEMP: 81;  
 

 
 
ALZ015-024>026-033>036-041>044-140700-  
CENTRAL ALABAMA  
 
CITY SKY/WX TMP DP RH WIND PRES REMARKS
 
BIRMINGHAM FAIR 73 68 84 N3 30.05F  
6HR MIN TEMP: 73; 6HR MAX TEMP: 88;  
 
MONTGOMERY FAIR 75 74 96 S3 30.00F FOG  
6HR MIN TEMP: 75; 6HR MAX TEMP: 82;  
 
SHELBY CO ARPT FAIR 74 72 93 CALM 30.03F  
6HR MIN TEMP: 74; 6HR MAX TEMP: 84;  
 
MAXWELL AFB FAIR 74 73 97 CALM 29.99F  
6HR MIN TEMP: 74; 6HR MAX TEMP: 81;  
 
GREENVILLE NOT AVBL  
SELMA FAIR 73 72 94 CALM 30.01S  
PRATTVILLE FAIR 72 72 100 CALM 29.99F  
6HR MIN TEMP: 72; 6HR MAX TEMP: 80;  
 
BESSEMER FAIR 73 72 96 CALM 30.04F  
6HR MIN TEMP: 72; 6HR MAX TEMP: 82;  
 
TALLADEGA FAIR 71 70 96 CALM 30.04F  
6HR MIN TEMP: 71; 6HR MAX TEMP: 86;  
 
PELL CITY CLEAR 68 68 100 CALM 30.03F  
MARION FAIR 73 73 100 CALM 30.02S  
6HR MIN TEMP: 73; 6HR MAX TEMP: 81;  
 
SYLACAUGA FAIR 73 73 100 CALM 30.03F FOG  
6HR MIN TEMP: 72; 6HR MAX TEMP: 84;  
 

 
 
ALZ019-021-028-029-037-038-045>048-140700-  
EAST CENTRAL ALABAMA  
 
CITY SKY/WX TMP DP RH WIND PRES REMARKS
 
ANNISTON FAIR 72 68 87 NE3 30.04F  
6HR MIN TEMP: 72; 6HR MAX TEMP: 85;  
 
ALEXANDER CITY FAIR 73 73 100 CALM 30.02F  
6HR MIN TEMP: 73; 6HR MAX TEMP: 86;  
 
AUBURN FAIR 75 72 90 CALM 30.04S  
6HR MIN TEMP: 75; 6HR MAX TEMP: 86;  
 

 
 
ALZ051>064-140700-  
SOUTHWEST ALABAMA  
 
CITY SKY/WX TMP DP RH WIND PRES REMARKS
 
MOBILE FAIR 73 71 93 CALM 30.04F FOG  
6HR MIN TEMP: 73; 6HR MAX TEMP: 82;  
 
BROOKLEY FIELD FAIR 77 75 93 CALM 30.04S  
6HR MIN TEMP: 76; 6HR MAX TEMP: 85;  
 
EVERGREEN FAIR 73 71 93 CALM 30.03S FOG  
6HR MIN TEMP: 73; 6HR MAX TEMP: 77;  
 

 
 
ALZ049-050-065>069-140700-  
SOUTHEAST ALABAMA  
 
CITY SKY/WX TMP DP RH WIND PRES REMARKS
 
DOTHAN FAIR 76 72 87 CALM 30.05S  
6HR MIN TEMP: 75; 6HR MAX TEMP: 83;  
 
OZARK FAIR 73 71 94 CALM 30.02S  
6HR MIN TEMP: 73; 6HR MAX TEMP: 80; 6HR PCP: TRACE;  
 
TROY FAIR 72 70 93 E5 30.04R  
6HR MIN TEMP: 71; 6HR MAX TEMP: 87;  
 
EUFAULA FAIR 74 73 97 SW3 30.01S  
6HR MIN TEMP: 73; 6HR MAX TEMP: 84; 6HR PCP: 0.13;  
 

 
 
 
CLICK HERE TO GO TO PREVIOUS BULLETINS.

The Nexlab AL Page Main Text Page